EYESAT-NANO (44877 NORAD) Tracking and Keplerian Element Data

This shows tracking and keplerian element data for the satellite.

Feedback or suggestion? Click here.




ElementValue
Catalog44877
NameEYESAT-NANO
Epoch Orbit454
Epoch Day17.3997518
Epoch Year2020
RAAN203.312
Inclination97.4496
Eccentricity0.0013692
Argument of Perigee180.198
Mean Anonmoly179.9313
Mean Motion15.16558599
Decay Rate-6.7E-07
L11 44877U 19092E 20017.39975180 -.00000067 00000-0 00000+0 0 9996
L22 44877 97.4496 203.3120 0013692 180.1980 179.9313 15.16558599 4540

Live tracking and technical data element details for EYESAT-NANO (NORAD 44877). EYESAT-NANO can be tracked NOW for your location showing map with azimuth and elevation plus other details from your city location.

Track the satellite on the map from your city or location and see movement details for azimuth, elevation, latitude, longitude, range, height, and movement on the map or in text.







IsCatalogInMostPopularTable: catalog: 44877, numindb: 5
Update: records affected: 1



GetName: 44877 EYESAT-NANO

Hit Count: updated at: Sat, 18 Jan 2020 16:59:03 GMT